Regional Weather Roundup
Issued by NWS

Home | Current Version | Previous Version | Text Only | Print | Product List | Glossary On
Versions: 1 2 3 4 5 6 7 8 9 10 11 12 13 14 15 16 17 18 19 20 21 22 23 24 25 26 27 28 29 30 31 32 33 34 35 36 37 38 39 40 41 42 43 44 45 46 47 48 49 50
000
ASUS43 KMKX 221400
RWRWI

WISCONSIN REGIONAL WEATHER ROUNDUP
NATIONAL WEATHER SERVICE MILWAUKEE/SULLIVAN WI
900 AM CDT FRI SEP 22 2017

NOTE: "FAIR" INDICATES FEW OR NO CLOUDS BELOW 12,000 FEET WITH NO
SIGNIFICANT WEATHER AND/OR OBSTRUCTIONS TO VISIBILITY.

WIZ001-002-006>008-014>016-023>028-221500-
NORTHWEST WISCONSIN

CITY           SKY/WX    TMP DP  RH WIND       PRES   REMARKS
SUPERIOR ARPT  DRIZZLE   66  65  96 CALM      29.89F
ASHLAND        TSTM      68  65  90 NW9G23    29.94R
HAYWARD        TSTM      70  67  90 N8        29.96R FOG
SIREN          CLOUDY    71  69  93 S3        29.90R
CUMBERLAND     CLOUDY    70  66  88 SE3       29.91R
RICE LAKE      CLOUDY    72  68  88 CALM      29.92R FOG
CHETEK         CLOUDY    72  70  92 SE7       29.91S
LADYSMITH      CLOUDY    73  69  87 S9        29.94S
EAU CLAIRE     NOT AVBL
MENOMONIE      MOSUNNY   75  70  85 E6        29.91R
NEW RICHMOND   CLOUDY    75  67  78 S12       29.87F
OSCEOLA        CLOUDY    75  69  80 SE6       29.90R
$$

WIZ003>005-009-010-017-018-221500-
NORTH CENTRAL WISCONSIN

CITY           SKY/WX    TMP DP  RH WIND       PRES   REMARKS
MANITOWISH WTR CLOUDY    71  71 100 S9        29.98R
ARBOR VITAE    CLOUDY    74  70  86 S12       29.98S
WOODRUFF       CLOUDY    74  70  86 S12       29.98S
RHINELANDER    SUNNY     76  70  82 SW10G17   30.00S
EAGLE RIVER    SUNNY     72  68  89 S3        29.99S
LAND O LAKES   CLOUDY    72  67  84 S6        30.00S
PHILLIPS         N/A     72  69  92 S9        29.95F
TOMAHAWK       CLOUDY    71  66  86 CALM      29.99F
MEDFORD        CLOUDY    72  67  86 S10       29.97F
MERRILL        SUNNY     73  69  88 S5        29.99S
$$

WIZ029-030-035-036-043>047-221500-
CENTRAL WISCONSIN

CITY           SKY/WX    TMP DP  RH WIND       PRES   REMARKS
WAUSAU         SUNNY     74  68  81 S8        29.98S
MOSINEE        MOSUNNY   73  70  88 S10       30.01R
MARSHFIELD     SUNNY     74  67  78 S9        29.98S
STEVENS POINT  MOSUNNY   73  68  85 S9        30.01R
WAUPACA        MOSUNNY   73  73  98 S5        30.01R
WAUTOMA        SUNNY     74  69  85 CALM      30.02R
WISC RAPIDS    CLOUDY    77  69  76 S9        30.01R
CAMP DOUGLAS   NOT AVBL
$$

WIZ011>013-019>022-031-037>040-048>050-221500-
NORTHEAST WISCONSIN

CITY           SKY/WX    TMP DP  RH WIND       PRES   REMARKS
ANTIGO         PTSUNNY   68  67  96 S5        30.03R
SHAWANO        SUNNY     73  70  92 SW5       30.00R
OCONTO         SUNNY     73  69  87 SW3       30.00R
STURGEON BAY   SUNNY     76  69  79 S10       30.02F
GREEN BAY      SUNNY     77  71  82 S9        30.02R
MANITOWOC      SUNNY     75  70  84 S6        30.03S
APPLETON       MOSUNNY   73  72  94 S8        30.01R
CLINTONVILLE   SUNNY     73  70  88 S5        30.01R
OSHKOSH        SUNNY     76  70  82 S10       30.02R
$$

WIZ032>034-041-042-053>061-221500-
SOUTHWEST WISCONSIN

CITY           SKY/WX    TMP DP  RH WIND       PRES   REMARKS
LA CROSSE      CLOUDY    81  70  69 S15       29.94R HX  84
SPARTA         SUNNY     77  68  74 CALM      29.97R
VIROQUA        CLOUDY    75  70  85 S6        30.00R
BOSCOBEL       SUNNY     80  68  66 S7        29.99R HX  83
PRAIRIE DU CHI SUNNY     78  66  67 S3        29.97S HX  80
PLATTEVILLE    SUNNY     75  72  89 S9        30.03R
$$

WIZ056-057-062-063-064-067-068-221500-
SOUTH CENTRAL WISCONSIN

CITY           SKY/WX    TMP DP  RH WIND       PRES   REMARKS
REEDSBURG      SUNNY     75  70  85 S6        30.00R
BARABOO/DELLS  SUNNY     75  66  73 S9        30.01R
LONE ROCK      NOT AVBL
MINERAL POINT  SUNNY     73  72  94 S9        30.03S
MADISON        MOSUNNY   75  68  78 S8        30.03S
MIDDLETON      SUNNY     76  69  79 S6        30.03S
WATERTOWN      SUNNY     74  71  89 S7        30.04S
MONROE         SUNNY     72  68  88 S9        30.05R
JANESVILLE     MOSUNNY   79  68  69 S8        30.05R HX  81
$$

WIZ051-052-058>065-066-070>072-221500-
SOUTHEAST WISCONSIN

CITY           SKY/WX    TMP DP  RH WIND       PRES   REMARKS
MILWAUKEE      MOSUNNY   80  69  69 SW10      30.05S HX  83
WAUKESHA       SUNNY     73  66  78 S8        30.07S
MILWAUKEE/TIMM SUNNY     79  66  65 SW6       30.06S HX  81
RACINE         SUNNY     81  70  69 SW7       30.07S HX  84
BURLINGTON     SUNNY     75  71  86 S5        30.05S
KENOSHA        SUNNY     81  69  67 SW8       30.06S HX  84
FOND DU LAC    SUNNY     78  67  68 S9        30.03S HX  80
SHEBOYGAN      SUNNY     74  72  93 S6        30.04S FOG
WEST BEND        N/A     73  70  88 SW3       30.05S
JUNEAU         SUNNY     73  68  84 S7        30.05S
$$

LSZ147-162-221500-
LAKE SUPERIOR

STATION/POSITION TIME  TEMP    WIND        PRES    WAVE
                       AIR SEA DIR/SP/G            HT/PER
                 (UTC) (F)     (DEG/KT/KT) (MB)    (FT/S)
W MID LAKE BUOY  1250   62 54  200/  8/  8 1011.3R   1/ 3
DEVILS ISLAND    1300   69     190/  6/  8 1012.5R
PORT WING        1220   61     240/  2/  5 1012.2R
SAXON HARBOR     1330   75     190/  4/  9 1012.5R
$$

LMZ867-665-643>646-221500-
LAKE MICHIGAN

STATION/POSITION TIME  TEMP    WIND        PRES    WAVE
                       AIR SEA DIR/SP/G            HT/PER
                 (UTC) (F)     (DEG/KT/KT) (MB)    (FT/S)
S GREEN BAY BUOY 1330   71 67  190/ 10/ 10 1015.4F
N MID LAKE BUOY  1250   68 66  190/ 12/ 14 1016.5    1/ 3
NORTHPORT PIER   1340   72     160/  8/ 11 1015.9R
KEWAUNEE LAKESHO 1330   63     180/  8/  9 1015.5F
SHEBOYGAN LAKESH 1300   69     170/ 10/ 10 1016.6F
PORT WASHINGTON  1330   77     190/  4/  6 1017.9S
ATWATER BUOY     1209   67 65  170/  2/  4 1017.7R
MILWAUKEE LAKESH 1340   79     240/ 10/ 12   N/A
S MID LAKE BUOY  1250   71 69  140/  8/ 10 1018.1R   1
KENOSHA   LAKESH 1300   78     180/  4/  6 1017.6
$$

TC  - TEMPERATURE IN CELSIUS
VSB - VISIBILITY IN STATUTE MILES
WCI - WIND CHILL INDEX
HX  - HEAT INDEX





USA.gov is the U.S. government's official web portal to all federal, state and local government web resources and services.